Regional Weather Roundup
Issued by NWS

Home | Current Version | Previous Version | Graphics & Text | Print | Product List | Glossary On
Versions: 1 2 3 4 5 6 7 8 9 10 11 12 13 14 15 16 17 18 19 20 21 22 23 24 25 26 27 28 29 30 31 32 33 34 35 36 37 38 39 40 41 42 43 44 45 46 47 48 49 50
000
ASUS43 KMPX 250510
RWRMN
WEATHER ROUNDUP FOR MINNESOTA
NATIONAL WEATHER SERVICE TWIN CITIES/CHANHASSEN MN
1200 AM CDT WED MAY 25 2016


NOTE: "FAIR" INDICATES FEW OR NO CLOUDS BELOW 12,000 FEET WITH NO
SIGNIFICANT WEATHER AND/OR OBSTRUCTIONS TO VISIBILITY. N/A MEANS
CURRENT SKY AND/OR WEATHER CONDITIONS ARE NOT AVAILABLE.

MNZ060>063-068>070-250600-
   Twin Cities Metro

CITY           SKY/WX    TMP DP  RH WIND       PRES   REMARKS
TWIN CITIES    PTCLDY    71  57  61 SE5       29.91S
ST PAUL        CLEAR     70  58  65 E3        29.91S
CRYSTAL        CLEAR     63  55  75 CALM      29.89F
BLAINE         CLEAR     64  57  77 E7        29.91S
EDEN PRAIRIE   CLEAR     70  55  59 E5        29.89F
SOUTH ST PAUL  CLEAR     71  57  61 CALM      29.91S
LAKE ELMO      FAIR      64  55  72 NE6       29.92F
$$
MNZ001>005-007-008-013>017-022>024-027-028-250600-
   Northwest Minnesota

CITY           SKY/WX    TMP DP  RH WIND       PRES   REMARKS
BEMIDJI        CLEAR     56  47  73 NE7       29.94S
HALLOCK          N/A     63  48  59 E9        29.89S HAZE
ROSEAU         CLEAR     61  54  77 E8        29.94R
WARROAD        CLEAR     61  55  82 SE12      29.95S
THIEF RVR FALL CLEAR     64  46  52 E10       29.92S
CROOKSTON      CLEAR     66  48  52 E5        29.90S
FOSSTON        CLEAR     61  50  67 E3        29.92S
DETROIT LAKES  CLEAR     64  52  63 SE7       29.92S
MOORHEAD       CLEAR     66  46  48 E8        29.88R
PARK RAPIDS    CLEAR     62  53  72 E5        29.92F
MAHNOMEN       FAIR      64  49  57 SE7       29.91S
$$
MNZ006-009>011-018-025>026-250600-
   North Central Minnesota

CITY           SKY/WX    TMP DP  RH WIND       PRES   REMARKS
BAUDETTE       CLEAR     58  51  78 E12       29.95F
FLAG ISLAND    CLEAR     61  54  77 E7        29.95S
INTL FALLS     CLEAR     52  50  93 SE6       29.97S
WASKISH        CLEAR     57  52  82 E6        29.95F
BIG FORK       CLEAR     57  52  82 NE3       29.97R
LONGVILLE      CLEAR     55  54  94 CALM      29.94S
CRANE LAKE     CLEAR     55  50  82 CALM      30.01S
ORR            CLEAR     57  48  72 SE5       29.98R
COOK           CLEAR     57  52  82 E7        30.02R
WALKER         FAIR      60  53  78 CALM      29.93F
$$
MNZ012-019>021-037-250600-
   Northeast Minnesota

CITY           SKY/WX    TMP DP  RH WIND       PRES   REMARKS
DULUTH         FOG       52  51  97 E9        30.01F VSB 1/2
ELY            CLEAR     54  50  87 S3        30.01F
HIBBING        MOCLDY    57  54  89 E9        29.99F
EVELETH        CLOUDY    57  54  88 E6        30.02F
DULUTH HARBOR  CLOUDY    48  46  93 NE16G23   30.03S FOG
TWO HARBORS    CLOUDY    54  48  82 NE14G20   30.02R HAZE
SILVER BAY     FOG       52  52 100 NE12G20   30.02F VSB 1
GRAND MARAIS     N/A     49  47  93 NE9       30.04F
G MARAIS ARPRT CLOUDY    52  48  87 E8        30.05F
$$
MNZ029>031-032-039>041-046>048-054>057-064-250600-
   West Central Minnesota

CITY           SKY/WX    TMP DP  RH WIND       PRES   REMARKS
FERGUS FALLS   CLEAR     66  54  63 E8        29.85R
WHEATON        PTCLDY    70  55  60 E13       29.87R
MORRIS         MOCLDY    66  54  63 E13       29.86S
ALEXANDRIA     CLOUDY    63  53  70 E12       29.91S
ELBOW LAKE     FAIR      65  55  68 SE10      29.88R
WADENA         CLEAR     59  54  82 E7        29.92S
GLENWOOD       CLOUDY    63  54  72 E10       29.91R
APPLETON       CLOUDY    66  54  63 E9        29.85S
ORTONVILLE     PTCLDY    64  54  68 E8        29.85S
MADISON        CLOUDY    70  48  46 SE12      29.84F
WILLMAR        FAIR      66  57  72 E7        29.89F
$$
MNZ033>034-036-042>043-049>051-058-059-250600-
   Central Minnesota

CITY           SKY/WX    TMP DP  RH WIND       PRES   REMARKS
ST CLOUD       PTCLDY    64  53  67 NE8       29.92R
SAUK CENTRE    FAIR      62  53  74 E13       29.91S
PAYNESVILLE    PTCLDY    66  56  71 E5        29.91S
AITKIN         CLEAR     55  50  82 CALM      29.92F
PINE RIVER     PTCLDY    55  55 100 CALM      29.96F
BRAINERD       PTCLDY    57  55  93 E5        29.93F
STAPLES        CLEAR     57  54  88 CALM      29.93S
LONG PRAIRIE   FAIR      59  54  82 NE8       29.93S
LITTLE FALLS   PTCLDY    61  52  72 E5        29.92F
LITCHFIELD     CLOUDY    64  61  88 E6        29.90S
BUFFALO        CLEAR     65  57  74 NE3       29.91F
MAPLE LAKE     CLOUDY    63  59  86 CALM      29.92S
HUTCHINSON     MOCLDY    67  59  74 E7        29.90S
$$
MNZ037-044-045-052-053-250600-
   East Central Minnesota

CITY           SKY/WX    TMP DP  RH WIND       PRES   REMARKS
PRINCETON      CLEAR     66  55  68 NE7       29.92F
MORA           CLEAR     63  52  67 CALM      29.95F
CAMBRIDGE      CLEAR     66  55  68 NE3       29.91F
RUSH CITY      MOCLDY    63  56  78 NE5       29.93F
MOOSE LAKE     CLOUDY    52  50  93 NE6       29.97R FOG
HINCKLEY       FAIR      59  55  88 NE9       29.96R
CLOQUET        FOG       54  52  94 E9        30.00R VSB 1/2
MCGREGOR       PTCLDY    55  54  94 SE6       29.96R
$$
MNZ071>073-080-081-089-090-097-098-250600-
   Southwest Minnesota

CITY           SKY/WX    TMP DP  RH WIND       PRES   REMARKS
MONTEVIDEO     CLOUDY    68  52  56 SE10      29.88R
GRANITE FALLS  CLOUDY    71  52  51 E7        29.88R
CANBY          CLOUDY    70  56  59 E7        29.86S
MARSHALL       CLOUDY    68  54  60 SE10      29.87
REDWOOD FALLS  CLOUDY    69  53  56 SE8       29.87R
OLIVIA         CLOUDY    63  46  55 SE9       29.87S
PIPESTONE      CLOUDY    70  57  64 S8        29.87S
WINDOM         CLOUDY    68  61  77 CALM      29.89S
WORTHINGTON    CLEAR     69  62  78 S8        29.88F
JACKSON        CLEAR     68  59  73 S8        29.90S
TRACY          CLOUDY    70  55  60 S8        29.88R
SLAYTON        CLOUDY    67  59  74 S7        29.89S
$$
MNZ065>067-074>077-082>085-091>093-250600-
   South Central Minnesota

CITY           SKY/WX    TMP DP  RH WIND       PRES   REMARKS
MANKATO        CLEAR     70  55  60 E7        29.91S
NEW ULM        CLEAR     68  54  60 SE8       29.89R
ST JAMES       CLEAR     64  55  72 SE6       29.89S
FAIRMONT       CLEAR     66  46  48 SE3       29.89S
GLENCOE        PTCLDY    66  59  77 SE5       29.90R
FARIBAULT      CLEAR     66  57  72 SE2       29.92F
OWATONNA       CLEAR     64  55  72 E5        29.92S
WASECA         CLEAR     63  55  77 SE7       29.93R
ALBERT LEA     CLEAR     66  59  77 SE6       29.92R
$$
MNZ078>079-086>088-094>096-250600-
   Southeast Minnesota

CITY           SKY/WX    TMP DP  RH WIND       PRES   REMARKS
ROCHESTER      CLEAR     64  58  80 SE8       29.94S
RED WING       CLEAR     61  57  88 CALM      29.91S
STANTON        PTCLDY    65  56  73 CALM      29.90S
DODGE CENTER   CLEAR     64  55  72 E7        29.94R
WINONA         PTCLDY    63  61  94 CALM      29.94R
AUSTIN         CLEAR     64  57  77 CALM      29.93R
PRESTON        CLEAR     67  58  70 CALM      29.95R
$$
ABBREVIATIONS USED IN REMARKS
   TC - TEMPERATURES IN CELSIUS
  WCI - WIND CHILL INDEX
   HX - HEAT INDEX
  VSB - VISIBILITY
$$




USA.gov is the U.S. government's official web portal to all federal, state and local government web resources and services.